Regional Weather Roundup
Issued by NWS

Home | Current Version | Previous Version | Graphics & Text | Print | Product List | Glossary On
Versions: 1 2 3 4 5 6 7 8 9 10 11 12 13 14 15 16 17 18 19 20 21 22 23 24 25 26 27 28 29 30 31 32 33 34 35 36 37 38 39 40 41 42 43 44 45 46 47 48 49 50
000
ASUS43 KIND 232209
RWRIN

WEATHER ROUNDUP FOR INDIANA
NATIONAL WEATHER SERVICE INDIANAPOLIS IN
600 PM EDT WED JUL 23 2014

NOTE: "FAIR" INDICATES FEW OR NO CLOUDS BELOW 12,000 FEET WITH NO
SIGNIFICANT WEATHER AND/OR OBSTRUCTIONS TO VISIBILITY.

* - STATION DOES NOT REPORT WEATHER SUCH AS PRECIPITATION OR FOG.

+ - STATION NOT QUALITY CONTROLLED BY THE NATIONAL WEATHER SERVICE.
    USE DATA WITH CAUTION...ESPECIALLY DEWPOINT AND RELATIVE
    HUMIDITY OBSERVATIONS.

INZ001>003-010>013-019-020-232300-
NORTHWEST INDIANA

CITY           SKY/WX    TMP DP  RH WIND       PRES   REMARKS
GARY /AIRPORT/ SUNNY     70  52  52 N15       30.13F
KNOX *+        MOSUNNY   69  57  67 N16       30.08F
LA PORTE +     SUNNY     66  54  65 N18G25    30.11F
MICHIGAN CITY+ SUNNY     64  52  63 N16G26    30.12F
MONTICELLO +   SUNNY     72  59  62 N20       30.05F
RENSSELAER +   SUNNY     70  59  68 N13G20    30.10S
VALPARAISO     SUNNY     66  51  58 N14G25    30.11F

$$

LMZ046-743>745-232300-
SOUTHERN LAKE MICHIGAN

STATION/POSITION TIME  TEMP WIND        PRES
                       AIR  DIR/SP/G
                 (UTC) (F)  (DEG/KT/KT) (MB)
BURNS HARBOR     2100   64  360/ 21/ 25 1020.3
MICHIGAN CITY    2200   64  350/ 29/ 35   N/A

$$

INZ004-005-014>016-021>024-232300-
NORTH CENTRAL INDIANA

CITY           SKY/WX    TMP DP  RH WIND       PRES   REMARKS
ELKHART        MOSUNNY   72  59  64 NW8       30.07F
GOSHEN         PTSUNNY   74  56  53 N13       30.05F
LOGANSPORT +   PTSUNNY   72  59  64 N10G22    30.06S
PERU/GRISSOM   CLOUDY    74  63  67 N13       30.03F
ROCHESTER +    MOSUNNY   75  59  57 N15       30.06S
SOUTH BEND     MOSUNNY   71  57  61 N16       30.09S
WARSAW +       PTSUNNY   73  59  60 N3        30.05F

$$

INZ006>009-017-018-025>027-232300-
NORTHEAST INDIANA

CITY           SKY/WX    TMP DP  RH WIND       PRES   REMARKS
ANGOLA *+      PTSUNNY   75  68  78 N9        30.05S
AUBURN +       CLOUDY    73  55  53 N12       30.05S
FORT WAYNE     PTSUNNY   76  61  59 N10       30.03F
HUNTINGTON +   MOSUNNY   75  62  65 N10       30.03F

$$

INZ028-029-035-036-043>045-051>053-232300-
WEST CENTRAL INDIANA

CITY           SKY/WX    TMP DP  RH WIND       PRES   REMARKS
GREENCASTLE +  CLOUDY    73  68  83 N8        30.03F
LAFAYETTE      SUNNY     74  56  53 N17G25    30.05F
TERRE HAUTE    CLOUDY    76  66  71 N9        30.02S

$$

INZ030>032-037>040-046>048-054>057-064-065-232300-
CENTRAL INDIANA

CITY           SKY/WX    TMP DP  RH WIND       PRES   REMARKS
CP ATTERBURY + CLOUDY    75  68  78 NW7       30.00S
COLUMBUS       LGT RAIN  75  72  88 NW6       29.99S
INDIANAPOLIS   CLOUDY    73  67  81 N9        30.01F
-EAGLE CREEK   CLOUDY    74  67  78 N7        30.01F
KOKOMO *+      PTSUNNY   75  63  64 N12       30.03F
MARION +       PTSUNNY   73  61  66 N10       30.03F
MT COMFORT *+  CLOUDY    70 N/A N/A N9        30.03S
SHELBYVILLE    CLOUDY    75  69  81 N15       30.00S
ZIONSVILLE +   CLOUDY    75  63  65 N9        30.03F

$$

INZ033-034-041-042-049-050-058-059-232300-
EAST CENTRAL INDIANA

CITY           SKY/WX    TMP DP  RH WIND       PRES   REMARKS
MUNCIE         CLOUDY    71  64  78 N10       30.03S

$$

INZ060-061-067>069-081>083-085>088-232300-
SOUTHWEST INDIANA

CITY           SKY/WX    TMP DP  RH WIND       PRES   REMARKS
EVANSVILLE     PTSUNNY   82  71  69 VRB7      29.99F
HUNTINGBURG *+ PTSUNNY   81  70  69 N7        29.99F
WASHINGTON +   CLOUDY    75  72  90 N8        29.99F

$$

INZ062-063-066-070>080-084-089>092-232300-
SOUTH CENTRAL AND SOUTHEAST INDIANA

CITY           SKY/WX    TMP DP  RH WIND       PRES   REMARKS
BLOOMINGTON    CLOUDY    74  69  85 N8        30.01S

$$



USA.gov is the U.S. government's official web portal to all federal, state and local government web resources and services.